| time (UTC) | temp F | wind direction | speed MPH | gust MPH | rain 1hr in | rain 24hr in | rain mn in | humidity % | barometer mb |
| 20260506202409 | 71 | 223 | 2.0 | 5.0 | 0.00 | 0.27 | 0.27 | 78 | 1005.3 |
| 20260506201909 | 70 | 265 | 1.0 | 5.0 | 0.00 | 0.27 | 0.27 | 78 | 1005.5 |
| 20260506201435 | 70 | 237 | 3.0 | 5.0 | 0.00 | 0.27 | 0.27 | 79 | 1005.5 |
| 20260506201425 | 70 | 241 | 3.0 | 5.0 | 0.00 | 0.27 | 0.27 | 79 | 1005.4 |
| 20260506200650 | 69 | 235 | 3.0 | 6.0 | 0.00 | 0.27 | 0.27 | 79 | 1005.5 |
| 20260506195907 | 69 | 165 | 2.0 | 9.0 | 0.00 | 0.27 | 0.27 | 80 | 1005.6 |
| 20260506195407 | 69 | 237 | 4.0 | 9.0 | 0.00 | 0.27 | 0.27 | 79 | 1005.5 |
| 20260506194907 | 69 | 217 | 2.0 | 6.0 | 0.00 | 0.27 | 0.27 | 79 | 1005.5 |
| 20260506194407 | 69 | 241 | 3.0 | 6.0 | 0.00 | 0.27 | 0.27 | 79 | 1005.5 |
| 20260506194144 | 69 | 221 | 1.0 | 5.0 | 0.00 | 0.27 | 0.27 | 81 | 1005.6 |
| 20260506193403 | 70 | 262 | 1.0 | 7.0 | 0.00 | 0.27 | 0.27 | 81 | 1005.6 |
| 20260506193142 | 69 | 250 | 2.0 | 7.0 | 0.00 | 0.27 | 0.27 | 78 | 1005.6 |
| 20260506192401 | 70 | 189 | 2.0 | 10.0 | 0.00 | 0.27 | 0.27 | 78 | 1005.6 |
| 20260506191902 | 69 | 192 | 3.0 | 11.0 | 0.00 | 0.27 | 0.27 | 80 | 1005.7 |
| 20260506191357 | 69 | 230 | 4.0 | 11.0 | 0.00 | 0.27 | 0.27 | 80 | 1005.8 |
| 20260506190853 | 69 | 195 | 3.0 | 6.0 | 0.00 | 0.27 | 0.27 | 80 | 1005.6 |
| 20260506190354 | 69 | 214 | 3.0 | 6.0 | 0.00 | 0.27 | 0.27 | 79 | 1005.9 |
| 20260506190137 | 69 | 195 | 2.0 | 6.0 | 0.00 | 0.27 | 0.27 | 82 | 1005.9 |
| 20260506185355 | 68 | 189 | 3.0 | 6.0 | 0.00 | 0.27 | 0.27 | 82 | 1005.7 |
| 20260506185139 | 68 | 293 | 3.0 | 5.0 | 0.00 | 0.27 | 0.27 | 82 | 1005.9 |
| 20260506184633 | 67 | 309 | 2.0 | 9.0 | 0.00 | 0.27 | 0.27 | 82 | 1006.2 |
| 20260506184148 | 67 | 310 | 2.0 | 6.0 | 0.00 | 0.27 | 0.27 | 82 | 1006.2 |
| 20260506183903 | 67 | 227 | 1.0 | 9.0 | 0.00 | 0.27 | 0.27 | 81 | 1006.1 |
| 20260506182842 | 67 | 230 | 2.0 | 6.0 | 0.00 | 0.27 | 0.27 | 82 | 1006.1 |
| 20260506182340 | 67 | 117 | 2.0 | 5.0 | 0.00 | 0.27 | 0.27 | 81 | 1006.2 |
| 20260506181841 | 67 | 203 | 3.0 | 6.0 | 0.00 | 0.27 | 0.27 | 82 | 1006.3 |
| 20260506181341 | 67 | 202 | 3.0 | 10.0 | 0.00 | 0.27 | 0.27 | 81 | 1006.4 |
| 20260506180842 | 67 | 250 | 4.0 | 10.0 | 0.00 | 0.27 | 0.27 | 82 | 1006.4 |
| 20260506180340 | 67 | 296 | 1.0 | 9.0 | 0.00 | 0.27 | 0.27 | 81 | 1006.4 |
| 20260506175832 | 67 | 206 | 3.0 | 7.0 | 0.00 | 0.27 | 0.27 | 80 | 1006.5 |
| 20260506175333 | 67 | 0 | 2.0 | 4.0 | 0.00 | 0.27 | 0.27 | 82 | 1006.3 |
| 20260506175115 | 67 | 159 | 2.0 | 7.0 | 0.00 | 0.27 | 0.27 | 82 | 1006.4 |
| 20260506174332 | 67 | 247 | 3.0 | 7.0 | 0.00 | 0.27 | 0.27 | 83 | 1006.5 |
| 20260506173834 | 66 | 226 | 2.0 | 5.0 | 0.00 | 0.27 | 0.27 | 83 | 1006.5 |
| 20260506173333 | 66 | 323 | 2.0 | 5.0 | 0.00 | 0.27 | 0.27 | 85 | 1006.5 |
| 20260506172832 | 66 | 59 | 2.0 | 10.0 | 0.00 | 0.27 | 0.27 | 84 | 1006.6 |
| 20260506172331 | 65 | 227 | 2.0 | 10.0 | 0.00 | 0.27 | 0.27 | 85 | 1006.7 |
| 20260506172111 | 65 | 244 | 3.0 | 7.0 | 0.00 | 0.27 | 0.27 | 84 | 1006.7 |
| 20260506171331 | 65 | 213 | 3.0 | 7.0 | 0.00 | 0.27 | 0.27 | 85 | 1006.7 |
| 20260506170833 | 65 | 219 | 1.0 | 6.0 | 0.00 | 0.27 | 0.27 | 86 | 1006.7 |
| 20260506170609 | 65 | 224 | 3.0 | 7.0 | 0.00 | 0.27 | 0.27 | 86 | 1006.6 |
| 20260506170112 | 65 | 274 | 2.0 | 10.0 | 0.00 | 0.27 | 0.27 | 86 | 1006.8 |
| 20260506165333 | 65 | 196 | 3.0 | 10.0 | 0.00 | 0.27 | 0.27 | 86 | 1006.8 |
| 20260506164834 | 65 | 248 | 3.0 | 9.0 | 0.00 | 0.27 | 0.27 | 87 | 1006.8 |
| 20260506164330 | 65 | 326 | 3.0 | 9.0 | 0.00 | 0.27 | 0.27 | 86 | 1006.6 |
| 20260506163831 | 65 | 252 | 3.0 | 7.0 | 0.00 | 0.27 | 0.27 | 87 | 1006.6 |
| 20260506163331 | 65 | 220 | 3.0 | 10.0 | 0.00 | 0.27 | 0.27 | 88 | 1006.8 |
| 20260506162831 | 65 | 241 | 4.0 | 10.0 | 0.01 | 0.27 | 0.27 | 89 | 1006.7 |
| 20260506162331 | 65 | 240 | 2.0 | 7.0 | 0.01 | 0.27 | 0.27 | 90 | 1006.8 |
| 20260506161827 | 64 | 300 | 4.0 | 7.0 | 0.01 | 0.27 | 0.27 | 91 | 1006.8 |
| 20260506161327 | 64 | 245 | 2.0 | 6.0 | 0.01 | 0.27 | 0.27 | 92 | 1006.8 |
| 20260506160828 | 63 | 209 | 3.0 | 13.0 | 0.01 | 0.27 | 0.27 | 92 | 1006.7 |
| 20260506160324 | 63 | 158 | 4.0 | 13.0 | 0.02 | 0.27 | 0.27 | 92 | 1006.8 |
| 20260506155825 | 63 | 265 | 3.0 | 5.0 | 0.02 | 0.25 | 0.27 | 93 | 1007.0 |
| 20260506155325 | 63 | 228 | 2.0 | 6.0 | 0.03 | 0.25 | 0.27 | 93 | 1006.8 |
| 20260506155111 | 62 | 331 | 3.0 | 10.0 | 0.03 | 0.25 | 0.27 | 93 | 1006.9 |
| 20260506154603 | 63 | 193 | 4.0 | 11.0 | 0.04 | 0.25 | 0.27 | 94 | 1006.9 |
| 20260506153820 | 62 | 196 | 2.0 | 11.0 | 0.04 | 0.25 | 0.27 | 94 | 1007.0 |
| 20260506153554 | 62 | 233 | 1.0 | 6.0 | 0.05 | 0.25 | 0.27 | 94 | 1006.9 |
| 20260506152815 | 61 | 254 | 2.0 | 9.0 | 0.04 | 0.25 | 0.26 | 94 | 1007.2 |
| 20260506152311 | 62 | 238 | 2.0 | 9.0 | 0.04 | 0.25 | 0.26 | 95 | 1007.3 |
| 20260506151808 | 61 | 259 | 3.0 | 9.0 | 0.04 | 0.25 | 0.26 | 94 | 1007.2 |
| 20260506151308 | 60 | 197 | 2.0 | 6.0 | 0.04 | 0.25 | 0.26 | 94 | 1007.0 |
| 20260506150807 | 60 | 51 | 2.0 | 6.0 | 0.05 | 0.25 | 0.26 | 94 | 1007.2 |
| 20260506150309 | 60 | 240 | 2.0 | 6.0 | 0.04 | 0.25 | 0.25 | 94 | 1007.4 |
| 20260506145807 | 60 | 226 | 2.0 | 6.0 | 0.05 | 0.21 | 0.24 | 94 | 1007.5 |
| 20260506145307 | 60 | 224 | 2.0 | 6.0 | 0.04 | 0.21 | 0.24 | 94 | 1007.5 |
| 20260506144810 | 60 | 274 | 2.0 | 5.0 | 0.05 | 0.21 | 0.24 | 94 | 1007.4 |
| 20260506144549 | 61 | 206 | 1.0 | 5.0 | 0.05 | 0.21 | 0.23 | 94 | 1007.7 |
| 20260506143809 | 60 | 183 | 1.0 | 5.0 | 0.07 | 0.21 | 0.23 | 94 | 1007.7 |
| 20260506143307 | 60 | 244 | 1.0 | 4.0 | 0.08 | 0.21 | 0.22 | 94 | 1007.8 |
| 20260506142807 | 60 | 47 | 0.0 | 5.0 | 0.09 | 0.21 | 0.22 | 94 | 1007.8 |
| 20260506142308 | 60 | 243 | 2.0 | 7.0 | 0.11 | 0.21 | 0.22 | 94 | 1007.9 |
| 20260506141807 | 60 | 230 | 3.0 | 7.0 | 0.13 | 0.21 | 0.22 | 94 | 1007.8 |
| 20260506141306 | 60 | 142 | 2.0 | 5.0 | 0.15 | 0.21 | 0.22 | 94 | 1007.7 |
| 20260506140806 | 60 | 90 | 2.0 | 5.0 | 0.17 | 0.21 | 0.21 | 94 | 1007.7 |
| 20260506140306 | 60 | 134 | 1.0 | 3.0 | 0.18 | 0.21 | 0.21 | 94 | 1007.8 |
| 20260506140047 | 60 | 233 | 1.0 | 5.0 | 0.17 | 0.03 | 0.20 | 94 | 1007.7 |
| 20260506135547 | 60 | 250 | 2.0 | 5.0 | 0.17 | 0.03 | 0.20 | 93 | 1007.6 |
| 20260506135047 | 60 | 55 | 1.0 | 4.0 | 0.16 | 0.03 | 0.19 | 93 | 1007.6 |
| 20260506134306 | 60 | 73 | 2.0 | 4.0 | 0.15 | 0.03 | 0.18 | 93 | 1007.7 |
| 20260506133805 | 60 | 309 | 1.0 | 3.0 | 0.14 | 0.03 | 0.15 | 93 | 1007.7 |
| 20260506133305 | 60 | 220 | 1.0 | 3.0 | 0.12 | 0.03 | 0.14 | 93 | 1008.0 |
| 20260506132806 | 60 | 220 | 1.0 | 3.0 | 0.11 | 0.03 | 0.13 | 93 | 1008.0 |
| 20260506132549 | 60 | 220 | 1.0 | 3.0 | 0.09 | 0.03 | 0.10 | 92 | 1008.1 |
| 20260506132047 | 61 | 188 | 1.0 | 3.0 | 0.07 | 0.03 | 0.08 | 92 | 1008.2 |
| 20260506131304 | 61 | 0 | 1.0 | 3.0 | 0.05 | 0.03 | 0.06 | 92 | 1008.2 |
| 20260506130806 | 61 | 1 | 0.0 | 4.0 | 0.03 | 0.03 | 0.04 | 92 | 1008.4 |
| 20260506130304 | 61 | 329 | 1.0 | 4.0 | 0.03 | 0.03 | 0.03 | 92 | 1008.4 |
| 20260506125805 | 61 | 179 | 0.0 | 2.0 | 0.03 | 0.00 | 0.03 | 92 | 1008.3 |
| 20260506125306 | 61 | 179 | 1.0 | 2.0 | 0.03 | 0.00 | 0.03 | 92 | 1008.1 |
| 20260506124805 | 61 | 178 | 0.0 | 2.0 | 0.03 | 0.00 | 0.03 | 92 | 1007.8 |
| 20260506124305 | 61 | 145 | 1.0 | 2.0 | 0.03 | 0.00 | 0.03 | 91 | 1007.7 |
| 20260506123804 | 61 | 202 | 0.0 | 3.0 | 0.02 | 0.00 | 0.02 | 91 | 1007.6 |
| 20260506123304 | 61 | 202 | 1.0 | 3.0 | 0.02 | 0.00 | 0.02 | 91 | 1007.5 |
| 20260506122805 | 61 | 104 | 0.0 | 3.0 | 0.02 | 0.00 | 0.02 | 90 | 1007.5 |
| 20260506122545 | 61 | 200 | 0.0 | 3.0 | 0.02 | 0.00 | 0.02 | 90 | 1007.4 |
| 20260506121804 | 61 | 82 | 0.0 | 3.0 | 0.02 | 0.00 | 0.02 | 90 | 1007.7 |
| 20260506121303 | 62 | 226 | 0.0 | 3.0 | 0.02 | 0.00 | 0.02 | 89 | 1007.8 |
| 20260506120804 | 62 | 220 | 1.0 | 3.0 | 0.01 | 0.00 | 0.01 | 88 | 1007.8 |
| 20260506120304 | 62 | 176 | 0.0 | 4.0 | 0.00 | 0.00 | 0.00 | 87 | 1008.0 |
| 20260506115804 | 62 | 176 | 0.0 | 5.0 | 0.00 | 0.00 | 0.00 | 85 | 1008.1 |
| 20260506115546 | 63 | 312 | 1.0 | 5.0 | 0.00 | 0.00 | 0.00 | 83 | 1008.1 |
| 20260506114804 | 63 | 202 | 1.0 | 5.0 | 0.00 | 0.00 | 0.00 | 83 | 1008.0 |
| 20260506114302 | 63 | 203 | 1.0 | 5.0 | 0.00 | 0.00 | 0.00 | 82 | 1008.0 |
| 20260506113804 | 63 | 137 | 1.0 | 5.0 | 0.00 | 0.00 | 0.00 | 81 | 1007.9 |
| 20260506113304 | 64 | 261 | 1.0 | 4.0 | 0.00 | 0.00 | 0.00 | 80 | 1007.9 |
| 20260506112802 | 64 | 216 | 1.0 | 5.0 | 0.00 | 0.00 | 0.00 | 79 | 1008.0 |
| 20260506112305 | 64 | 189 | 2.0 | 5.0 | 0.00 | 0.00 | 0.00 | 80 | 1007.8 |
| 20260506111802 | 64 | 62 | 1.0 | 6.0 | 0.00 | 0.00 | 0.00 | 80 | 1007.6 |
| 20260506111544 | 64 | 31 | 2.0 | 6.0 | 0.00 | 0.00 | 0.00 | 79 | 1007.5 |
| 20260506110802 | 64 | 206 | 2.0 | 5.0 | 0.00 | 0.00 | 0.00 | 79 | 1007.5 |
| 20260506110301 | 64 | 49 | 1.0 | 4.0 | 0.00 | 0.00 | 0.00 | 79 | 1007.4 |
| 20260506105803 | 64 | 213 | 1.0 | 3.0 | 0.00 | 0.00 | 0.00 | 79 | 1007.4 |
| 20260506105305 | 64 | 241 | 1.0 | 4.0 | 0.00 | 0.00 | 0.00 | 79 | 1007.4 |
| 20260506104804 | 64 | 186 | 1.0 | 4.0 | 0.00 | 0.00 | 0.00 | 77 | 1007.4 |
| 20260506104302 | 65 | 237 | 2.0 | 10.0 | 0.00 | 0.00 | 0.00 | 76 | 1007.3 |
| 20260506103804 | 65 | 220 | 1.0 | 10.0 | 0.00 | 0.00 | 0.00 | 74 | 1007.3 |
| 20260506103302 | 65 | 226 | 3.0 | 7.0 | 0.00 | 0.00 | 0.00 | 73 | 1007.2 |
| 20260506102805 | 65 | 226 | 1.0 | 5.0 | 0.00 | 0.00 | 0.00 | 73 | 1007.1 |
| 20260506102544 | 65 | 269 | 2.0 | 5.0 | 0.00 | 0.00 | 0.00 | 74 | 1007.1 |
| 20260506101802 | 65 | 265 | 0.0 | 4.0 | 0.00 | 0.00 | 0.00 | 73 | 1007.1 |
| 20260506101302 | 65 | 240 | 2.0 | 6.0 | 0.00 | 0.00 | 0.00 | 73 | 1007.0 |
| 20260506100802 | 65 | 103 | 2.0 | 6.0 | 0.00 | 0.00 | 0.00 | 73 | 1007.1 |
| 20260506100304 | 65 | 262 | 2.0 | 6.0 | 0.00 | 0.00 | 0.00 | 72 | 1007.0 |
| 20260506095802 | 65 | 251 | 2.0 | 6.0 | 0.00 | 0.00 | 0.00 | 72 | 1007.1 |
| 20260506095305 | 65 | 214 | 2.0 | 7.0 | 0.00 | 0.00 | 0.00 | 72 | 1006.9 |
| 20260506094802 | 66 | 228 | 2.0 | 11.0 | 0.00 | 0.00 | 0.00 | 71 | 1007.0 |
| 20260506094302 | 66 | 217 | 3.0 | 11.0 | 0.00 | 0.00 | 0.00 | 71 | 1007.1 |
| 20260506094041 | 66 | 210 | 3.0 | 7.0 | 0.00 | 0.00 | 0.00 | 71 | 1007.2 |
| 20260506093543 | 66 | 219 | 2.0 | 10.0 | 0.00 | 0.00 | 0.00 | 71 | 1007.1 |
| 20260506092803 | 66 | 219 | 3.0 | 10.0 | 0.00 | 0.00 | 0.00 | 71 | 1007.1 |
| 20260506092306 | 66 | 224 | 2.0 | 6.0 | 0.00 | 0.00 | 0.00 | 71 | 1007.1 |
| 20260506091802 | 66 | 166 | 4.0 | 7.0 | 0.00 | 0.00 | 0.00 | 71 | 1007.1 |
| 20260506091303 | 66 | 226 | 3.0 | 7.0 | 0.00 | 0.00 | 0.00 | 71 | 1007.1 |
| 20260506090803 | 66 | 8 | 2.0 | 4.0 | 0.00 | 0.00 | 0.00 | 71 | 1007.1 |
| 20260506090303 | 66 | 226 | 2.0 | 5.0 | 0.00 | 0.00 | 0.00 | 71 | 1007.1 |
| 20260506090042 | 66 | 192 | 1.0 | 5.0 | 0.00 | 0.00 | 0.00 | 70 | 1007.2 |
| 20260506085300 | 66 | 157 | 2.0 | 6.0 | 0.00 | 0.00 | 0.00 | 70 | 1007.2 |
| 20260506084801 | 66 | 223 | 2.0 | 9.0 | 0.00 | 0.00 | 0.00 | 69 | 1007.3 |
| 20260506084300 | 66 | 144 | 2.0 | 9.0 | 0.00 | 0.00 | 0.00 | 69 | 1007.3 |
| 20260506084044 | 66 | 216 | 2.0 | 6.0 | 0.00 | 0.00 | 0.00 | 69 | 1007.3 |
| 20260506083300 | 67 | 59 | 2.0 | 11.0 | 0.00 | 0.00 | 0.00 | 69 | 1007.3 |
| 20260506082756 | 67 | 245 | 2.0 | 11.0 | 0.00 | 0.00 | 0.00 | 68 | 1007.3 |
| 20260506082258 | 67 | 135 | 2.0 | 7.0 | 0.00 | 0.00 | 0.00 | 68 | 1007.3 |
| 20260506081757 | 67 | 241 | 2.0 | 7.0 | 0.00 | 0.00 | 0.00 | 68 | 1007.3 |
| 20260506081254 | 67 | 204 | 2.0 | 9.0 | 0.00 | 0.00 | 0.00 | 68 | 1007.3 |
| 20260506080754 | 67 | 247 | 2.0 | 9.0 | 0.00 | 0.00 | 0.00 | 67 | 1007.3 |
| 20260506080254 | 67 | 221 | 1.0 | 5.0 | 0.00 | 0.00 | 0.00 | 67 | 1007.3 |
| 20260506073257 | 68 | 212 | 2.0 | 6.0 | 0.00 | 0.00 | 0.00 | 65 | 1007.2 |
| 20260506073248 | 68 | 241 | 1.0 | 5.0 | 0.00 | 0.00 | 0.00 | 65 | 1007.2 |
| 20260506072233 | 68 | 193 | 3.0 | 6.0 | 0.00 | 0.00 | 0.00 | 65 | 1007.3 |
| 20260506072013 | 68 | 306 | 1.0 | 4.0 | 0.00 | 0.00 | 0.00 | 65 | 1007.3 |
| 20260506071234 | 68 | 283 | 1.0 | 2.0 | 0.00 | 0.00 | 0.00 | 65 | 1007.4 |
| 20260506071013 | 68 | 217 | 1.0 | 5.0 | 0.00 | 0.00 | 0.00 | 64 | 1007.4 |
| 20260506070230 | 68 | 159 | 2.0 | 6.0 | 0.00 | 0.00 | 0.00 | 64 | 1007.5 |
| 20260506062222 | 69 | 223 | 1.0 | 4.0 | 0.00 | 0.00 | 0.00 | 62 | 1007.9 |
| 20260506062002 | 69 | 214 | 1.0 | 6.0 | 0.00 | 0.00 | 0.00 | 62 | 1007.9 |
| 20260506061224 | 69 | 207 | 3.0 | 6.0 | 0.00 | 0.00 | 0.00 | 62 | 1007.9 |
| 20260506060722 | 69 | 227 | 2.0 | 6.0 | 0.00 | 0.00 | 0.00 | 61 | 1007.9 |
| 20260506060220 | 70 | 220 | 1.0 | 4.0 | 0.00 | 0.00 | 0.00 | 61 | 1007.9 |
| 20260506051204 | 71 | 240 | 3.0 | 6.0 | 0.00 | 0.00 | 0.00 | 58 | 1008.2 |
| 20260506050946 | 71 | 197 | 2.0 | 6.0 | 0.00 | 0.00 | 0.00 | 58 | 1008.2 |
| 20260506050204 | 71 | 262 | 2.0 | 6.0 | 0.00 | 0.00 | 0.00 | 58 | 1008.3 |
| 20260506044702 | 70 | 244 | 2.0 | 5.0 | 0.00 | 0.00 | 0.00 | 59 | 1008.3 |
| 20260506044203 | 71 | 203 | 2.0 | 4.0 | 0.00 | 0.00 | 0.00 | 58 | 1008.3 |
| 20260506043702 | 70 | 231 | 2.0 | 5.0 | 0.00 | 0.00 | 0.00 | 58 | 1008.3 |
| 20260506043202 | 71 | 157 | 3.0 | 5.0 | 0.00 | 0.00 | 0.00 | 57 | 1008.3 |
| 20260506042702 | 71 | 219 | 1.0 | 7.0 | 0.00 | 0.00 | 0.00 | 57 | 1008.3 |
| 20260506042203 | 71 | 89 | 1.0 | 7.0 | 0.00 | 0.00 | 0.00 | 57 | 1008.3 |
| 20260506041702 | 71 | 258 | 2.0 | 5.0 | 0.00 | 0.00 | 0.00 | 56 | 1008.3 |
| 20260506041202 | 71 | 223 | 2.0 | 9.0 | 0.00 | 0.00 | 0.00 | 56 | 1008.3 |
| 20260506040704 | 71 | 204 | 3.0 | 9.0 | 0.00 | 0.00 | 0.00 | 56 | 1008.3 |
| 20260506040202 | 71 | 240 | 4.0 | 9.0 | 0.00 | 0.00 | 0.00 | 56 | 1008.4 |
| 20260506035701 | 71 | 0 | 1.0 | 7.0 | 0.00 | 0.00 | 0.00 | 55 | 1008.3 |
| 20260506035203 | 71 | 230 | 2.0 | 6.0 | 0.00 | 0.00 | 0.00 | 55 | 1008.2 |
| 20260506034701 | 71 | 237 | 2.0 | 9.0 | 0.00 | 0.00 | 0.00 | 55 | 1008.2 |
| 20260506034154 | 71 | 200 | 2.0 | 9.0 | 0.00 | 0.00 | 0.00 | 55 | 1008.3 |
| 20260506033656 | 71 | 241 | 2.0 | 9.0 | 0.00 | 0.00 | 0.00 | 55 | 1008.2 |
| 20260506033155 | 71 | 213 | 2.0 | 4.0 | 0.00 | 0.00 | 0.00 | 55 | 1008.3 |
| 20260506032655 | 71 | 243 | 1.0 | 4.0 | 0.00 | 0.00 | 0.00 | 55 | 1008.3 |
| 20260506032156 | 71 | 192 | 2.0 | 4.0 | 0.00 | 0.00 | 0.00 | 54 | 1008.3 |
| 20260506031933 | 71 | 269 | 1.0 | 4.0 | 0.00 | 0.00 | 0.00 | 54 | 1008.4 |
| 20260506031151 | 71 | 247 | 1.0 | 6.0 | 0.00 | 0.00 | 0.00 | 54 | 1008.4 |
| 20260506030650 | 71 | 44 | 2.0 | 6.0 | 0.00 | 0.00 | 0.00 | 53 | 1008.2 |
| 20260506030149 | 71 | 217 | 1.0 | 6.0 | 0.00 | 0.00 | 0.00 | 52 | 1008.2 |
| 20260506025649 | 71 | 200 | 2.0 | 6.0 | 0.00 | 0.00 | 0.00 | 52 | 1008.3 |
| 20260506025149 | 71 | 230 | 3.0 | 6.0 | 0.00 | 0.00 | 0.00 | 51 | 1008.2 |
| 20260506024715 | 71 | 173 | 2.0 | 6.0 | 0.00 | 0.00 | 0.00 | 51 | 1008.2 |
| 20260506024705 | 71 | 231 | 2.0 | 5.0 | 0.00 | 0.00 | 0.00 | 51 | 1008.2 |
| 20260506023930 | 72 | 151 | 1.0 | 7.0 | 0.00 | 0.00 | 0.00 | 51 | 1008.3 |
| 20260506023427 | 72 | 138 | 2.0 | 7.0 | 0.00 | 0.00 | 0.00 | 50 | 1008.2 |
| 20260506022649 | 72 | 220 | 1.0 | 4.0 | 0.00 | 0.00 | 0.00 | 50 | 1008.4 |
| 20260506022148 | 72 | 212 | 2.0 | 4.0 | 0.00 | 0.00 | 0.00 | 49 | 1008.4 |
| 20260506021926 | 72 | 197 | 1.0 | 6.0 | 0.00 | 0.00 | 0.00 | 49 | 1008.3 |
| 20260506021148 | 72 | 228 | 3.0 | 6.0 | 0.00 | 0.00 | 0.00 | 48 | 1008.3 |
| 20260506020648 | 72 | 235 | 1.0 | 10.0 | 0.00 | 0.00 | 0.00 | 47 | 1008.4 |
| 20260506020149 | 72 | 212 | 2.0 | 10.0 | 0.00 | 0.00 | 0.00 | 46 | 1008.3 |
| 20260506015929 | 72 | 202 | 2.0 | 4.0 | 0.00 | 0.00 | 0.00 | 46 | 1008.3 |
| 20260506015428 | 72 | 216 | 1.0 | 2.0 | 0.00 | 0.00 | 0.00 | 47 | 1008.2 |
| 20260506014649 | 72 | 179 | 1.0 | 5.0 | 0.00 | 0.00 | 0.00 | 46 | 1008.2 |
| 20260506014147 | 73 | 192 | 1.0 | 5.0 | 0.00 | 0.00 | 0.00 | 46 | 1008.1 |
| 20260506013647 | 73 | 190 | 1.0 | 6.0 | 0.00 | 0.00 | 0.00 | 45 | 1008.2 |
| 20260506013148 | 73 | 179 | 2.0 | 6.0 | 0.00 | 0.00 | 0.00 | 45 | 1008.2 |
| 20260506012647 | 73 | 257 | 1.0 | 7.0 | 0.00 | 0.00 | 0.00 | 44 | 1008.1 |
| 20260506012147 | 73 | 0 | 2.0 | 7.0 | 0.00 | 0.00 | 0.00 | 44 | 1008.1 |
| 20260506011926 | 73 | 223 | 2.0 | 5.0 | 0.00 | 0.00 | 0.00 | 43 | 1007.9 |
| 20260506011427 | 73 | 233 | 2.0 | 4.0 | 0.00 | 0.00 | 0.00 | 43 | 1007.9 |
| 20260506010647 | 74 | 213 | 1.0 | 4.0 | 0.00 | 0.00 | 0.00 | 42 | 1007.9 |
| 20260506010149 | 74 | 180 | 1.0 | 4.0 | 0.00 | 0.00 | 0.00 | 42 | 1007.9 |
| 20260506005648 | 74 | 203 | 1.0 | 4.0 | 0.00 | 0.00 | 0.00 | 42 | 1007.8 |
| 20260506005148 | 74 | 230 | 2.0 | 5.0 | 0.00 | 0.00 | 0.00 | 42 | 1007.8 |
| 20260506004646 | 75 | 250 | 2.0 | 5.0 | 0.00 | 0.00 | 0.00 | 40 | 1007.6 |
| 20260506004147 | 75 | 203 | 2.0 | 4.0 | 0.00 | 0.00 | 0.00 | 40 | 1007.6 |
| 20260506003647 | 75 | 212 | 2.0 | 4.0 | 0.00 | 0.00 | 0.00 | 40 | 1007.4 |
| 20260506003147 | 75 | 261 | 2.0 | 4.0 | 0.00 | 0.00 | 0.00 | 39 | 1007.3 |
| 20260506002646 | 75 | 223 | 1.0 | 7.0 | 0.00 | 0.00 | 0.00 | 39 | 1007.4 |
| 20260506002146 | 75 | 259 | 1.0 | 7.0 | 0.00 | 0.00 | 0.00 | 39 | 1007.3 |
| 20260506001927 | 76 | 220 | 2.0 | 4.0 | 0.00 | 0.00 | 0.00 | 38 | 1007.4 |
| 20260506001145 | 76 | 248 | 1.0 | 4.0 | 0.00 | 0.00 | 0.00 | 38 | 1007.3 |
| 20260506000647 | 76 | 216 | 2.0 | 4.0 | 0.00 | 0.00 | 0.00 | 37 | 1007.3 |
| 20260506000145 | 76 | 190 | 2.0 | 4.0 | 0.00 | 0.00 | 0.00 | 37 | 1007.3 |
| 20260505235648 | 77 | 234 | 2.0 | 3.0 | 0.00 | 0.00 | 0.00 | 36 | 1007.1 |
| 20260505235145 | 77 | 281 | 1.0 | 6.0 | 0.00 | 0.00 | 0.00 | 36 | 1007.1 |
| 20260505234645 | 77 | 212 | 3.0 | 10.0 | 0.00 | 0.00 | 0.00 | 34 | 1007.1 |
| 20260505234146 | 78 | 217 | 2.0 | 10.0 | 0.00 | 0.00 | 0.00 | 35 | 1007.1 |
| 20260505233645 | 78 | 206 | 4.0 | 10.0 | 0.00 | 0.00 | 0.00 | 35 | 1007.1 |
| 20260505233144 | 78 | 237 | 2.0 | 7.0 | 0.00 | 0.00 | 0.00 | 35 | 1007.1 |
| 20260505232644 | 78 | 230 | 2.0 | 7.0 | 0.00 | 0.00 | 0.00 | 35 | 1007.0 |
| 20260505232144 | 78 | 240 | 2.0 | 6.0 | 0.00 | 0.00 | 0.00 | 35 | 1007.0 |
| 20260505231646 | 78 | 228 | 3.0 | 6.0 | 0.00 | 0.00 | 0.00 | 35 | 1007.0 |
| 20260505231423 | 78 | 134 | 1.0 | 5.0 | 0.00 | 0.00 | 0.00 | 35 | 1007.1 |
| 20260505230644 | 79 | 220 | 2.0 | 6.0 | 0.00 | 0.00 | 0.00 | 34 | 1007.2 |
| 20260505230425 | 79 | 171 | 1.0 | 13.0 | 0.00 | 0.00 | 0.00 | 34 | 1007.1 |
| 20260505225923 | 80 | 320 | 3.0 | 13.0 | 0.00 | 0.00 | 0.00 | 33 | 1007.1 |
| 20260505225425 | 80 | 206 | 3.0 | 13.0 | 0.00 | 0.00 | 0.00 | 32 | 1007.3 |
| 20260505224645 | 80 | 195 | 3.0 | 9.0 | 0.00 | 0.00 | 0.00 | 33 | 1007.2 |
| 20260505224411 | 80 | 197 | 3.0 | 9.0 | 0.00 | 0.00 | 0.00 | 32 | 1007.1 |
| 20260505223633 | 80 | 192 | 3.0 | 6.0 | 0.00 | 0.00 | 0.00 | 33 | 1007.1 |
| 20260505223411 | 80 | 247 | 1.0 | 6.0 | 0.00 | 0.00 | 0.00 | 32 | 1007.2 |
| 20260505222631 | 80 | 265 | 2.0 | 6.0 | 0.00 | 0.00 | 0.00 | 33 | 1007.2 |
| 20260505222133 | 80 | 11 | 2.0 | 7.0 | 0.00 | 0.00 | 0.00 | 32 | 1007.1 |
| 20260505221631 | 80 | 210 | 3.0 | 7.0 | 0.00 | 0.00 | 0.00 | 32 | 1007.0 |
| 20260505221130 | 80 | 309 | 4.0 | 7.0 | 0.00 | 0.00 | 0.00 | 33 | 1007.1 |
| 20260505220629 | 81 | 258 | 2.0 | 5.0 | 0.00 | 0.00 | 0.00 | 34 | 1007.0 |
| 20260505220127 | 81 | 213 | 1.0 | 11.0 | 0.00 | 0.00 | 0.00 | 32 | 1006.9 |
| 20260505215626 | 82 | 228 | 2.0 | 15.0 | 0.00 | 0.00 | 0.00 | 32 | 1006.9 |
| 20260505215127 | 82 | 221 | 5.0 | 15.0 | 0.00 | 0.00 | 0.00 | 31 | 1007.0 |
| 20260505214625 | 82 | 231 | 3.0 | 11.0 | 0.00 | 0.00 | 0.00 | 31 | 1007.0 |
| 20260505214127 | 82 | 241 | 4.0 | 15.0 | 0.00 | 0.00 | 0.00 | 31 | 1006.9 |
| 20260505213624 | 82 | 248 | 4.0 | 15.0 | 0.00 | 0.00 | 0.00 | 32 | 1006.9 |
| 20260505213122 | 82 | 230 | 4.0 | 13.0 | 0.00 | 0.00 | 0.00 | 32 | 1006.9 |
| 20260505212858 | 82 | 259 | 2.0 | 7.0 | 0.00 | 0.00 | 0.00 | 33 | 1006.9 |
| 20260505212120 | 82 | 179 | 3.0 | 10.0 | 0.00 | 0.00 | 0.00 | 33 | 1006.9 |
| 20260505211619 | 82 | 107 | 2.0 | 10.0 | 0.00 | 0.00 | 0.00 | 33 | 1007.0 |
| 20260505211358 | 82 | 219 | 4.0 | 11.0 | 0.00 | 0.00 | 0.00 | 32 | 1006.8 |
| 20260505210616 | 83 | 243 | 5.0 | 12.0 | 0.00 | 0.00 | 0.00 | 31 | 1006.8 |
| 20260505210116 | 83 | 251 | 3.0 | 12.0 | 0.00 | 0.00 | 0.00 | 31 | 1006.8 |
| 20260505205616 | 83 | 230 | 3.0 | 10.0 | 0.00 | 0.00 | 0.00 | 33 | 1006.9 |
| 20260505205118 | 83 | 216 | 2.0 | 11.0 | 0.00 | 0.00 | 0.00 | 34 | 1006.8 |
| 20260505204616 | 83 | 334 | 2.0 | 12.0 | 0.00 | 0.00 | 0.00 | 35 | 1006.8 |
| 20260505204113 | 83 | 262 | 4.0 | 12.0 | 0.00 | 0.00 | 0.00 | 33 | 1006.8 |
| 20260505203612 | 83 | 245 | 2.0 | 7.0 | 0.00 | 0.00 | 0.00 | 34 | 1006.8 |
| 20260505203112 | 83 | 252 | 3.0 | 11.0 | 0.00 | 0.00 | 0.00 | 33 | 1006.7 |